{"data":{"norad_id":59877,"intl_designator":"2024-098V","name":"STARLINK-31934","alt_names":[],"object_type":"PAYLOAD","status":"ACTIVE","operator":null,"country":"US","launch_date":"2024-05-24","launch_site_code":"AFETR","launch_vehicle":null,"mission":null,"orbit_class":"UNKNOWN","rcs_meters":null,"size_class":null,"mass_kg":null,"dimensions":null,"purposes":["comms"],"wikipedia_slug":null,"has_3d_model":false,"image_url":null,"decayed_at":null,"tle_current":{"epoch":"2026-09-21T00:40:42.793248Z","epoch_age_seconds":128853,"freshness":"FRESH","line1":"1 59877U 24098V   26264.02827307  .00007815  00000+0  29315-3 0  9991","line2":"2 59877  43.0015 251.1072 0001481 268.1487  91.9195 15.27585361131764","mean_motion":15.27585361,"eccentricity":0.0001481,"inclination_deg":43.0015,"raan_deg":251.1072,"arg_perigee_deg":268.1487,"mean_anomaly_deg":91.9195,"bstar":0.00029315,"rev_number":13176,"period_min":94.266417888251,"perigee_km":482.01690404057,"apogee_km":484.04918260741,"semimajor_km":6861.170043324,"source":"CELESTRAK","updated_at":"2026-09-22T09:00:49.104331Z"}}}